DW4394 Weather Reports


time (UTC)temp
C
wind
direction
speed
KPH
gust
KPH
rain 1hr
cm
rain 24hr
cm
rain mn
cm
humidity
%
barometer
mb
20260506184558 26 323 6.4 12.9 0.00 0.00 0.00 21 1013.2
20260506183058 26 281 4.8 11.3 0.00 0.00 0.00 22 1013.3
20260506181557 25 13 3.2 9.7 0.00 0.00 0.00 24 1013.4
20260506180105 24 22 3.2 14.5 0.00 0.00 0.00 24 1013.5
20260506174558 24 34 3.2 12.9 0.00 0.00 0.00 24 1013.4
20260506173059 23 161 1.6 12.9 0.00 0.00 0.00 25 1013.4
20260506171602 23 28 3.2 8.0 0.00 0.00 0.00 25 1013.5
20260506170109 22 5 3.2 8.0 0.00 0.00 0.00 25 1013.4
20260506164606 22 132 1.6 6.4 0.00 0.00 0.00 26 1013.3
20260506163116 22 40 4.8 8.0 0.00 0.00 0.00 26 1013.3
20260506161619 21 188 1.6 6.4 0.00 0.00 0.00 27 1013.2
20260506160057 21 290 3.2 8.0 0.00 0.00 0.00 27 1013.2
20260506154619 20 212 4.8 14.5 0.00 0.00 0.00 30 1013.1
20260506153107 20 225 4.8 14.5 0.00 0.00 0.00 32 1013.0
20260506151559 18 158 4.8 16.1 0.00 0.00 0.00 34 1012.9
20260506150101 18 202 6.4 14.5 0.00 0.00 0.00 35 1012.8
20260506144556 18 204 6.4 11.3 0.00 0.00 0.00 36 1012.7
20260506143106 17 172 8.0 16.1 0.00 0.00 0.00 37 1012.6
20260506141557 17 213 4.8 14.5 0.00 0.00 0.00 38 1012.4
20260506140059 16 181 6.4 16.1 0.00 0.00 0.00 38 1012.3
20260506134557 16 171 4.8 9.7 0.00 0.00 0.00 39 1012.0
20260506133057 15 146 6.4 12.9 0.00 0.00 0.00 41 1011.9
20260506131600 15 142 3.2 9.7 0.00 0.00 0.00 41 1011.7
20260506130100 15 188 3.2 11.3 0.00 0.00 0.00 40 1011.6
20260506124556 15 155 6.4 11.3 0.00 0.00 0.00 40 1011.4
20260506123056 15 171 4.8 11.3 0.00 0.00 0.00 40 1011.2
20260506121556 15 144 3.2 8.0 0.00 0.00 0.00 40 1011.1
20260506120100 15 157 4.8 11.3 0.00 0.00 0.00 40 1011.2
20260506114606 15 211 3.2 11.3 0.00 0.00 0.00 39 1011.0
20260506113057 15 159 4.8 9.7 0.00 0.00 0.00 38 1010.9
20260506111556 16 148 4.8 14.5 0.00 0.00 0.00 38 1010.8
20260506104557 16 183 8.0 14.5 0.00 0.00 0.00 38 1010.5
20260506103056 16 169 4.8 12.9 0.00 0.00 0.00 37 1010.5
20260506101605 16 200 6.4 16.1 0.00 0.00 0.00 37 1010.3
20260506100057 16 194 8.0 17.7 0.00 0.00 0.00 37 1010.1
20260506094621 16 136 6.4 14.5 0.00 0.00 0.00 37 1010.1
20260506093057 16 188 8.0 16.1 0.00 0.00 0.00 36 1010.0
20260506091555 16 161 4.8 16.1 0.00 0.00 0.00 36 1009.9
20260506090055 16 199 6.4 17.7 0.00 0.00 0.00 35 1009.8
20260506084556 17 170 6.4 16.1 0.00 0.00 0.00 34 1009.7
20260506083103 17 153 4.8 11.3 0.00 0.00 0.00 34 1009.6
20260506081556 17 146 8.0 14.5 0.00 0.00 0.00 33 1009.7
20260506073108 17 159 9.7 16.1 0.00 0.00 0.00 31 1009.9
20260506071600 17 172 8.0 17.7 0.00 0.00 0.00 28 1009.9
20260506070110 17 134 6.4 12.9 0.00 0.00 0.00 27 1009.9
20260506061601 17 156 4.8 8.0 0.00 0.00 0.00 28 1009.4
20260506060104 17 188 4.8 9.7 0.00 0.00 0.00 29 1009.2
20260506044559 18 196 6.4 14.5 0.00 0.00 0.00 28 1008.6
20260506043059 19 209 6.4 11.3 0.00 0.00 0.00 27 1008.5
20260506041559 19 178 4.8 11.3 0.00 0.00 0.00 27 1008.3
20260506040105 19 188 4.8 9.7 0.00 0.00 0.00 26 1008.0
20260506034614 20 174 4.8 12.9 0.00 0.00 0.00 26 1007.8
20260506033058 20 137 4.8 11.3 0.00 0.00 0.00 25 1007.6
20260506031606 20 177 6.4 16.1 0.00 0.00 0.00 25 1007.3
20260506024558 21 159 6.4 14.5 0.00 0.00 0.00 24 1006.8
20260506023059 21 204 6.4 17.7 0.00 0.00 0.00 24 1006.7
20260506021600 21 175 8.0 17.7 0.00 0.00 0.00 23 1006.5
20260506014600 22 219 4.8 12.9 0.00 0.00 0.00 21 1006.2
20260506013058 23 198 8.0 14.5 0.00 0.00 0.00 20 1006.1
20260506011607 23 217 6.4 16.1 0.00 0.00 0.00 18 1006.0
20260506010100 24 216 0.0 4.8 0.00 0.00 0.00 16 1006.0
20260506004600 24 26 1.6 6.4 0.00 0.00 0.00 16 1006.0
20260506003059 24 96 3.2 12.9 0.00 0.00 0.00 16 1005.9
20260506001558 25 129 0.0 6.4 0.00 0.00 0.00 15 1005.8
20260506000001 25 179 0.0 12.9 0.00 0.00 0.00 16 1005.7
20260505234605 24 189 1.6 8.0 0.00 0.00 0.00 16 1005.6
20260505233111 25 15 3.2 9.7 0.00 0.00 0.00 17 1005.6
20260505231605 25 103 6.4 17.7 0.00 0.00 0.00 17 1005.9
20260505230059 25 186 8.0 16.1 0.00 0.00 0.00 18 1006.0
20260505224558 25 185 6.4 11.3 0.00 0.00 0.00 19 1006.2
20260505223058 24 226 4.8 11.3 0.00 0.00 0.00 19 1006.4
20260505221559 25 190 9.7 16.1 0.00 0.00 0.00 18 1006.4
20260505220058 25 163 6.4 17.7 0.00 0.00 0.00 19 1006.6
20260505220001 25 163 6.4 17.7 0.00 0.00 0.00 20 1006.5
20260505214601 24 360 6.4 14.5 0.00 0.00 0.00 19 1006.8
20260505213100 25 13 4.8 12.9 0.00 0.00 0.00 20 1007.0
20260505211610 25 312 4.8 20.9 0.00 0.00 0.00 19 1007.1
20260505204602 25 175 1.6 12.9 0.00 0.00 0.00 20 1007.2
20260505203100 23 163 3.2 12.9 0.00 0.00 0.00 21 1007.3
20260505201601 23 206 3.2 16.1 0.00 0.00 0.00 21 1007.3
20260505194614 22 196 3.2 12.9 0.00 0.00 0.00 23 1007.7
20260505193059 22 265 3.2 17.7 0.00 0.00 0.00 24 1007.8
20260505191558 21 175 4.8 12.9 0.00 0.00 0.00 24 1007.9